OPS 4682 DEB, 15529

Orbit data source: Space-Track

OPS 4682 DEB, 15529 is space debris in LEO originally from a launch on Sat, 03 Apr 1965 UTC launched from the Air Force Western Test Range (AFWTR). Debris objects in space refer to the collection of defunct objects orbiting the Earth. Examples of debris include non-operational satellites, rocket bodies, and fragments generated from explosions, collisions, or faulty payload assembly.

Loading next visibility...
Identifier
15529, 1965-027S
Orbit
LEO
Country
Flag of USUS
Related business
Manufacturer
Unknown
Mission
Spacecraft
Bus & Motor
Unknown
Mass
Unknown
Launch date (UTC)
1965-04-03 (61 years ago)
Launch vehicle
Unknown
Launch site
Air Force Western Test Range (AFWTR)
Object type
Payload
Rocket body
Debris
Shape & HBR
Unknown shape, 0.1 m
Radar Cross Section
Small (<0.1 m²)

Expand to show TLE details & history
Last TLE update: 17 hours ago

TLE from 17 hours ago
0 OPS 4682 DEB
1 15529U 65027S   25295.12944198  .00000130  00000-0  41387-3 0  9993
2 15529  90.2390   1.1113 0031029 242.3908 144.2347 12.99152442126178
Epoch: 2025-10-22T03:06Z
TLE epoch observation values (Epoch: 2025-10-22T03:06:23.787Z)
Latitude
26.86554°
Longitude
-76.41576°
Altitude
1,287.959 km
Speed
7.205 km/s
True Right ascension
00h 03m 57s
True Declination
26° 44' 12"
Sunlit
Object was in full shadow at epoch
Visualization orbit readout
Latitude
Unknown
Longitude
Unknown
Altitude
Unknown
Speed
Unknown
Apparent Right ascension
Unknown
Apparent Declination
Unknown
Sunlit
N/A
Visualization observer readout
Local Sidereal Time
15:26:12
Azimuth
Unknown
Elevation
Unknown
Doppler factor
Unknown
Orbital elements
Apogee altitude
1,286.246 km
Perigee altitude
1,238.829 km
Semi-major axis
7,640.674 km
Eccentricity
0.0031
Inclination
90.239°
RAAN
1.1113°
Arg. of periapsis
242.3908°
True anomaly
144.44186°
Mean anomaly
144.2347°
Eccentric anomaly
144.33835°
Mean motion
3.24972 °/min
Orbital period
110.78 mins
BSTAR
0.00041387
Loading maneuver chart data...
Computing Atmospheric mass density...
Loading historical data...
Loading historical data...
Loading historical data...
Loading historical data...
Loading historical data...
Loading historical data...
Loading historical data...

Documentation

Showing up to 5 results
|